Regional Weather Roundup
Issued by NWS Newport/Morehead, NC

Current Version | Previous Version | Text Only | Print | Product List | Glossary On
Versions: 1 2 3 4 5 6 7 8 9 10 11 12 13 14 15 16 17 18 19 20 21 22 23 24 25 26 27 28 29 30 31 32 33 34 35 36 37 38 39 40 41 42 43 44 45 46 47 48 49 50
000
ASUS42 KMHX 182025
RWRMHX
WEATHER ROUNDUP FOR EASTERN NORTH CAROLINA
NATIONAL WEATHER SERVICE NEWPORT/MOREHEAD CITY NC
300 PM EST MON DEC 18 2017

NOTE: "FAIR" INDICATES FEW OR NO CLOUDS BELOW 12,000 FEET
WITH NO SIGNIFICANT WEATHER AND/OR OBSTRUCTIONS TO VISIBILITY

NCZ015>017-031-032-045>047-102-103-182100-
NORTH COAST

CITY           SKY/WX    TMP DP  RH WIND       PRES   REMARKS
EDENTON        SUNNY     64  45  50 CALM      30.06S
ELIZABETH CITY SUNNY     62  48  60 SW9       30.05F
KITTY HAWK     CLEAR     58  42  54 CALM      30.05S
MANTEO         SUNNY     59  42  54 NW3       30.07S

$$

NCZ045>047-081-094-103-104-182100-
CENTRAL COAST

CITY           SKY/WX    TMP DP  RH WIND       PRES   REMARKS
FRISCO         SUNNY     59  37  44 W6        30.08S

$$

NCZ095-097-098-100-101-182100-
SOUTHERN COAST

CITY           SKY/WX    TMP DP  RH WIND       PRES   REMARKS
BEAUFORT       CLOUDY    59  50  72 S8        30.08S
CEDAR ISLAND   NOT AVBL
JACKSONVILLE   SUNNY     66  57  72 SW7       30.07S
PINEY ISLAND     N/A    N/A N/A N/A E6        30.06F
WILMINGTON     MOSUNNY   66  56  70 S5        30.08S


$$

NCZ011>013-027>030-043-044-078>080-089-090>093-098-182100-
COASTAL PLAIN

CITY           SKY/WX    TMP DP  RH WIND       PRES   REMARKS
AHOSKIE        SUNNY     61  45  54 CALM      30.05F
CLINTON        SUNNY     68  53  59 SW7       30.06F
ELIZABETHTOWN  NOT AVBL
GOLDSBORO      SUNNY     66  44  45 SW8       30.04F
GREENVILLE     SUNNY     64  45  48 W7        30.08S
HAVELOCK       MOSUNNY   65  51  60 S7        30.07F
KENANSVILLE    PTSUNNY   68  52  56 W5        30.06F
KINSTON        SUNNY     66  45  45 SW6       30.07S
NEW BERN       SUNNY     66  51  58 VRB5      30.06F
RICHLANDS      SUNNY     67  55  65 S9        30.07F
ROCKY MOUNT    MOSUNNY   62  46  55 SW6       30.07S
WASHINGTON     SUNNY     64  45  50 W5        30.06F
WHITEVILLE     CLOUDY    64  57  78 SW5       30.08F

$$

AMZ130-135-150-152-154-156-158-170-250-252-270-ANZ085-086-088-633-658-670-182100-
MARINE OBSERVATIONS

STATION/POSITION TIME  TEMP    WIND        PRES    WAVE   SWELL
                       AIR SEA DIR/SP/G            HT/PER HT/PER
                 (UTC) (F)     (DEG/KT/KT) (MB)    (FT/S) (FT/S)
CHESAPEAKE LIGHT NOT AVBL
64 E VA BEACH    1950   53 58  280/ 10/ 12 1018.1    2/ 4   2/ 8
DUCK             2000   56 53  220/  8/ 10 1017.2
2 E DUCK         2000      54                N/A     1/11
OREGON INLET     2000   53 51  180/  6/  8 1017.9
13E OREGON INLT  1948      54                N/A     1/10   2/10
HATTERAS CG      2000   56 54  280/  5/  6 1018.3
DIAMOND BUOY     2010   62 72  260/  6/ 10 1018.7
CAPE LOOKOUT     2000          160/  8/  8 1018.7
BEAUFORT LAB     2000   56 51  190/  5/  7 1018.4
30 SE NEW RVR IN 2008   63 64  220/  6/  8 1019.0
30 SE NEW RVR IN 2000      64                N/A     1/10
27 SE WRIGHTSVLE 2008   60 59  240/  6/ 10 1019.1
5 SE WRIGHTSVLE  2008   58 56  190/  4/  8 1018.7
225 S CAPE HAT   1950   72 74  250/ 16/ 17 1020.5    4/ 6   2/ 9
41 SE CHARLESTON 2010   68 73  250/ 16/ 19 1020.2

$$



USA.gov is the U.S. government's official web portal to all federal, state and local government web resources and services.